Regional Weather Roundup
Issued by NWS Grand Forks, ND

Home | Current Version | Previous Version | Text Only | Print | Product List | Glossary Off
Versions: 1 2 3 4 5 6 7 8 9 10 11 12 13 14 15 16 17 18 19 20 21 22 23 24 25 26 27 28 29 30 31 32 33 34 35 36 37 38 39 40 41 42 43 44 45 46 47 48 49 50

000
ASUS43 KFGF 011531
RWRFGF
PRAIRIE TO PINES  WEATHER ROUNDUP
NATIONAL WEATHER SERVICE EASTERN NORTH DAKOTA/GRAND FORKS ND
1000 AM CDT WED OCT 01 2014

 **SATELLITE DATA USED TO AUGMENT SKY COVER AT AUTOMATED STATIONS**
 *****  WEATHER ACROSS EASTERN NORTH DAKOTA  *****

CITY           SKY/WX    TMP DP  RH WIND       PRES   REMARKS
GRAND FORKS    PTSUNNY   63  54  72 SW16G25   29.58S
GRAND FRKS AFB CLOUDY    61  57  88 S16       29.58R
GRAND FRKS NWS   N/A     63 N/A N/A SW15        N/A
DEVILS LAKE    CLOUDY    57  48  72 SW18      29.54S
FARGO          PTSUNNY   63  56  78 S16       29.65R
WAHPETON ARPT  PTSUNNY   63  59  88 S12       29.69S
$$

 ***** WEATHER ACROSS CENTRAL AND WESTERN NORTH DAKOTA  *****

CITY           SKY/WX    TMP DP  RH WIND       PRES   REMARKS
BISMARCK       CLOUDY    58  50  75 W12       29.69R
MINOT          CLOUDY    54  52  93 W13       29.56R FOG
JAMESTOWN      PTSUNNY   58  53  84 W14G21    29.63R
MINOT AFB      PTSUNNY   55  55 100 W12       29.56R
GARRISON         N/A     55  51  86 W17G28    29.60R
WILLISTON      CLOUDY    53  49  86 W20G28    29.67R
DICKINSON      CLOUDY    51  47  86 W22G28    29.71R
HETTINGER      CLOUDY    51  47  86 W18       29.78R
$$

 *****  OTHER AIRPORT OBSERVATIONS IN OUR AREA  *****

CITY           SKY/WX    TMP DP  RH WIND       PRES   REMARKS
WALHALLA         N/A     57  55  94 SW10G20   29.52R
GRAFTON AIRPOR CLOUDY    59  54  82 S14G23    29.55S
VALLEY CITY AR FAIR      59  57  94 W16G22    29.64R
CANDO          CLOUDY    55  54  94 SW14G22   29.54R
CAVALIER APRT  CLOUDY    57  52  82 S12       29.53R
GWINNER        SUNNY     61  54  77 SW12      29.69S
SHEYENNE NWR     N/A     65  55  69 SW10      29.95S
ROLLA          CLOUDY    50  50 100 W16       29.52R
 ***** THE ABOVE OBSERVATIONS ARE NON NWS ARE NOT QUALITY
       CONTROLLED AND MAY MIS-REPORT RAIN FOR SNOW...
$$

  *****  WEATHER ACROSS NORTHERN MINNESOTA  *****

CITY           SKY/WX    TMP DP  RH WIND       PRES   REMARKS
FLAG ISLAND    CLOUDY    57  54  88 S26G32    29.58S
WARROAD        CLOUDY    59  55  88 S13G21    29.60S
ROSEAU         CLOUDY    59  54  82 S15       29.58S
HALLOCK        PTSUNNY   61  52  72 S17       29.55R
THF RVR FALLS  PTSUNNY   61  54  77 S17G24    29.62R
BAUDETTE       CLOUDY    56  51  84 S12G22    29.65F
WASKISH        CLOUDY    55  52  88 SE7       29.69F
CROOKSTON      MOSUNNY   61  54  77 SW14G23   29.62S
STEPHEN NDAWN    N/A     61  55  82 SW14        N/A
GREENBUSH NDAW   N/A     57  54  88 S15         N/A
$$
  *****  WEATHER ACROSS CENTRAL AND WEST MINNESOTA  *****

CITY           SKY/WX    TMP DP  RH WIND       PRES   REMARKS
FOSSTON        CLOUDY    61  54  77 S18G25    29.66S
BEMIDJI        CLOUDY    54  51  90 SE14      29.71S
PARK RAPIDS    CLOUDY    52  51  97 S17       29.73S
ELBOW LAKE     CLOUDY    57  55  94 S12G20    29.71S FOG
WADENA         CLOUDY    54  52  94 S12       29.73F
DETROIT LAKES  CLOUDY    61  57  88 S13       29.70F
MOORHEAD       NOT AVBL
FERGUS FALLS   CLOUDY    59  55  88 S13       29.71S
MORRIS MN      CLOUDY    59  57  94 SE13      29.71S FOG
STAPLES        CLOUDY    50  48  93 SE8       29.76F FOG
$$
  *****  WEATHER ELSEWHERE ACROSS MINNESOTA  *****

CITY           SKY/WX    TMP DP  RH WIND       PRES   REMARKS
DULUTH         LGT RAIN  48  46  93 SE9       29.85F FOG
INTRNTL FALLS  CLOUDY    52  47  83 S9G18     29.73S
ELY            CLOUDY    46  45  93 S8        29.84F
CLOQUET        HVY RAIN  46  45  93 SE3       29.85F
WHEATON        PTSUNNY   63  59  88 S7        29.71S
BRAINERD       CLOUDY    49  48  97 S9        29.79S FOG
HIBBING        CLOUDY    49  45  86 SE9       29.83F FOG
ALEXANDRIA     CLOUDY    54  53  97 S12       29.76S FOG
SAINT CLOUD    CLOUDY    53  49  86 SE9       29.80F
MINNEAPOLIS    RAIN      50  48  93 SE14      29.83F FOG
$$

  *****  WEATHER ACROSS SOUTH DAKOTA  *****

CITY           SKY/WX    TMP DP  RH WIND       PRES   REMARKS
SIOUX FALLS    CLOUDY    66  60  81 S7        29.73F
BROOKINGS      NOT AVBL
WATERTOWN      PTSUNNY   64  58  80 W16       29.72R
HURON          CLOUDY    63  55  75 W9        29.74R
SISSETON         N/A     64  59  83 W12       29.68S
ABERDEEN       PTSUNNY   61  52  72 W12       29.71R
MITCHELL       PTSUNNY   66  61  84 W9        29.74R
PIERRE         SUNNY     60  50  69 W9        29.77R
MOBRIDGE       PTSUNNY   59  52  77 W6        29.72R
RAPID CITY     PTSUNNY   55  45  68 N10       29.83R
$$

  *****  SOME WEATHER IN NEARBY STATES *****

CITY           SKY/WX    TMP DP  RH WIND       PRES   REMARKS
GLASGOW MT     PTSUNNY   52  42  69 NW22      29.80R
GREAT FALLS MT PTSUNNY   44  41  89 SW9       29.97R
CHEYENNE WY    MOSUNNY   53  34  48 NW7       29.93R
SCOTTSBLUFF NE MOSUNNY   50  47  89 W6        29.89R
OMAHA NE       PTSUNNY   66  61  84 NE3       29.76S
DES MOINES IA  CLOUDY    62  59  90 S9        29.80S FOG
DAVENPORT IA   NOT AVBL
CHICAGO IL     MOSUNNY   59  47  64 S10       30.02S
EAU CLAIRE WI  RAIN      48  46  93 SE9       29.91F FOG
LA CROSSE WI   CLOUDY    56  48  74 SE13      29.91F
$$

  *****  SOME NATIONAL WEATHER *****

CITY           SKY/WX    TMP DP  RH WIND       PRES   REMARKS
LA GUARDIA NY  CLOUDY    63  57  81 NE8       30.05R
RALEIGH NC     PTSUNNY   69  63  81 CALM      30.04R
ATLANTA GA     MOSUNNY   76  61  59 CALM      30.03R
NEW ORLEANS LA CLOUDY    81  72  74 SE7       29.94R
OKLAHOMA CITY  MOSUNNY   80  65  59 S15G23    29.77R
ALBUQUERQUE NM MOSUNNY   57  37  47 CALM      30.01R
SALT LAKE CITY PTSUNNY   50  36  58 W9        30.05R
LOS ANGELES CA PTSUNNY   66  62  87 E7        29.82R FOG
BOISE ID       SUNNY     45  39  79 NW3       30.16R
SEATTLE WA     PTCLDY    52  50  93 S3        30.22S
$$

*** WEATHER ACROSS MANITOBA...SASKATCHEWAN AND ONTARIO ***
                ***ONTARIO***

CITY           SKY/WX    TMP DP  RH WIND       PRES   REMARKS
GERALDTON      CLOUDY    50  46  87 S8        29.97F
THUNDER BAY    CLOUDY    50  46  87 SE9       29.93F
SIOUX LOOKOUT  CLOUDY    50  45  81 S8        29.75S
TORONTO        DRIZZLE   59  55  88 E5        30.10R FOG
BIG TROUT LK   SUNNY     46  39  76 S15G21    29.70F
PICKLE LAKE    PTSUNNY   48  41  76 S14G21    29.76F
DRYDEN         CLOUDY    52  46  82 S16G23    29.71
KENORA         CLOUDY    54  50  87 S17G28    29.61S
$$
                *** MANITOBA***

CITY           SKY/WX    TMP DP  RH WIND       PRES   REMARKS
BRANDON        CLOUDY    52  50  93 W15       29.45R
DAUPHIN        CLOUDY    54  50  87 W13G20    29.37R
ISLAND LAKE    CLOUDY    50  45  81 SE12      29.50F
PILOT MOUND      N/A     52  50  93 SW17        N/A
THE PAS        LGT RAIN  50  50 100 NE2       29.37F FOG
THOMPSON       LGT RAIN N/A N/A N/A E5          N/A
WINNIPEG       CLOUDY    57  52  82 S24G35    29.46R
LYNN LAKE      RAIN      48  48 100 N3        29.45S
CHURCHILL      LGT RAIN  43  41  93 SE14      29.59
GILLAM         CLOUDY    41  41 100 SE8       29.54F
$$
                ***SASKATCHEWAN***

CITY           SKY/WX    TMP DP  RH WIND       PRES   REMARKS
ESTEVAN        LGT RAIN  52  52 100 NW17G23   29.58R FOG
KINDERSLEY     MOSUNNY   43  39  87 NW14      29.79
LLOYDMINSTER   MOSUNNY   43  37  81 W9        29.75
PRINCE ALBERT  CLOUDY    48  43  81 NW20G26   29.59R
REGINA         LGT RAIN  50  50 100 NW20G30   29.60R
YORKTON        CLOUDY    52  50  93 NW21      29.44R
N. BATTLEFORD  MOSUNNY   48  45  87 NW18      29.73R
LA RONGE       DRIZZLE   45  43  93 NW15G22   29.58R
SASKATOON      PTSUNNY   50  46  87 NW16G22   29.67
SWIFT CURRENT  CLOUDY    45  43  93 NW18G25   29.76R
$$
NOTE: THESE ARE AUTOMATED STATIONS WITH LIMITED QUALITY CONTROL
      "FAIR" INDICATES FEW OR NO CLOUDS BELOW 12,000 FEET WITH NO
      SIGNIFICANT WEATHER AND/OR OBSTRUCTIONS TO VISIBILITY.
      SKY/WX - SKY CONDITION AND SIGNIFICANT WEATHER.
      TMP - AIR TEMPERATURE.    DP   - DEWPOINT TEMPERATURE.
      RH  - RELATIVE HUMIDITY.  PRES - PRESSURE.
      HX  - HEAT INDEX.         WCI  - WIND CHILL INDEX.
$


USA.gov is the U.S. government's official web portal to all federal, state and local government web resources and services.